Home   Weather   Amarillo   Past weeks

Flag for USA Past Weather in Amarillo, Texas, USA — Yesterday and Last 2 Weeks

Now
72 °F

Clear.


Feels Like: 77 °F
Forecast: 57 / 68 °F
Wind: 10 mph from Southwest

Location: Amarillo International Airport

Current Time: Sep 24, 2016 at 9:09:56 PM

Latest Report: Sep 24, 2016 at 7:53 PM


Visibility: 10 mi

Pressure: 29.82 "Hg (26.20 "Hg at 1117m altitude)

Humidity: 34%

Dew Point: 42 °F

Location of AmarilloLocation

Past Weather in Amarillo — Graph

°F

Amarillo Temperature Yesterday

Maximum temperature yesterday: 85 °F (at 2:53 PM)
Minimum temperature yesterday: 62 °F (at 6:53 AM)
Average temperature yesterday: 74 °F

High & Low Weather Summary for the Past Weeks

 TemperatureHumidityPressure
High92 °F (Sep 18, 2:53 PM)97% (Sep 14, 5:03 AM)30.32 "Hg (Sep 14, 5:03 AM)
Low55 °F (Sep 10, 7:53 AM)14% (Sep 18, 3:53 PM)29.74 "Hg (Sep 12, 4:53 PM)
Average71 °F63%29.96 "Hg
* Reported Sep 9 7:53 PM — Sep 24 7:53 PM, Amarillo, Weather by CustomWeather, © 2016

Note: Actual official high and low records may vary slightly from our data, if they occured in-between our weather recording intervals... More about our weather records

Advertising

Amarillo Weather History for the Previous 24 Hours

Scroll right to see more
 ConditionsComfort  
Time TempWeatherWind HumidityBarometerVisibility
7:53 PM
Sat, Sep 24
72 °FClear.10 mph34%29.82 "Hg10 mi
6:53 PM80 °FSunny.16 mph24%29.79 "Hg10 mi
5:53 PM84 °FSunny.21 mph23%29.76 "Hg10 mi
4:53 PM85 °FSunny.21 mph22%29.75 "Hg10 mi
3:53 PM85 °FSunny.12 mph24%29.77 "Hg10 mi
2:53 PM82 °FSunny.9 mph23%29.81 "Hg10 mi
1:53 PM81 °FSunny.6 mph23%29.84 "Hg10 mi
12:53 PM78 °FSunny.8 mph28%29.86 "Hg10 mi
11:53 AM73 °FPartly sunny.8 mph40%29.87 "Hg10 mi
10:53 AM74 °FSunny.6 mph43%29.86 "Hg10 mi
9:53 AM69 °FSunny.12 mph70%29.88 "Hg10 mi
8:53 AM68 °FSunny.8 mph82%29.86 "Hg10 mi
7:53 AM68 °FSunny.12 mph82%29.84 "Hg10 mi
6:53 AM68 °FClear.10 mph78%29.82 "Hg10 mi
5:53 AM69 °FPassing clouds.12 mph76%29.82 "Hg10 mi
4:53 AM69 °FPassing clouds.13 mph76%29.80 "Hg10 mi
3:53 AM68 °FPassing clouds.12 mph78%29.81 "Hg10 mi
2:53 AM69 °FPassing clouds.14 mph79%29.81 "Hg10 mi
1:53 AM73 °FPassing clouds.22 mph66%29.78 "Hg10 mi
12:53 AM73 °FClear.18 mph69%29.78 "Hg10 mi
11:53 PM
Fri, Sep 23
72 °FClear.15 mph71%29.79 "Hg10 mi
10:53 PM73 °FClear.15 mph66%29.79 "Hg10 mi
9:53 PM74 °FClear.15 mph62%29.79 "Hg10 mi
Weather by CustomWeather, © 2016

See weather overviewHow to use our weather pages